{"data":{"norad_id":66340,"epoch":"2026-09-20T03:58:19.219008Z","epoch_age_seconds":122218,"freshness":"FRESH","line1":"1 66340U 25253X   26263.16550022  .00011427  00000+0  42397-3 0  9998","line2":"2 66340  42.9996 194.4969 0001320 272.0797  87.9904 15.27591831 49981","mean_motion":15.27591831,"eccentricity":0.000132,"inclination_deg":42.9996,"raan_deg":194.4969,"arg_perigee_deg":272.0797,"mean_anomaly_deg":87.9904,"bstar":0.00042397,"rev_number":4998,"period_min":94.266018629946,"perigee_km":482.10799810968,"apogee_km":483.91934188656,"semimajor_km":6861.1506699981,"source":"CELESTRAK","updated_at":"2026-09-21T09:00:35.877274Z"}}